SCP
0 0 0 0 0 0 0 0 0 0 0 0 0 0 0 0 0 0 0 0 0 0 0 0 0 0 0 0 0 0 0 0 0 0 0 0 0 0 0 0 0 0 0
0 0 0 0 0 0 0 0 0 0 0 0 0 0 0 0 0 0 0 0 0 0 0 0 0 0 0 0 0 0 0 0 0 0 0 0 0 0 0 0 0 0 0
0 0 0 0 0 0 0 0 0 0 0 0 0 0 0 0 0 0 0 0 0 0 0 0 0 0 0 0 0 0 0 0 0 0 0 0 0 0 0 0 0 0 0
0 0 0 0 0 0 0 0 0 0 0 0 0 0 0 0 0 0 0 0 0 0 0 0 0 0 0 0 0 0 0 0 0 0 0 0 0 0 0 0 0 0 0
0 0 0 0 0 0 0 0 0 0 0 0 0 0 0 0 0 0 0 0 0 0 0 0 0 0 0 0 0 0 0 0 0 0 0 0 0 0 0 0 0 0 0
0 0 0 0 0 0 0 0 0 0 0 0 0 0 0 0 0 0 0 0 0 0 0 0 0 0 0 0 0 0 0 0 0 0 0 0 0 0 0 0 0 0 0
0 0 0 0 0 0 0 0 0 0 0 0 0 0 0 0 0 0 0 0 0 0 0 0 0 0 0 0 0 0 0 0 0 0 0 0 0 0 0 0 0 0 0
0 0 0 0 0 0 0 0 0 0 0 0 0 0 0 0 0 0 0 0 0 0 0 0 0 0 0 0 0 0 0 0 0 0 0 0 0 0 0 0 0 0 0
0 0 0 0 0 0 0 0 0 0 0 0 0 0 0 0 0 0 0 0 0 0 0 0 0 0 0 0 0 0 0 0 0 0 0 0 0 0 0 0 0 0 0
0 0 0 0 0 0 0 0 0 0 0 0 0 0 0 0 0 0 0 0 0 0 0 0 0 0 0 0 0 0 0 0 0 0 0 0 0 0 0 0 0 0 0
0 0 0 0 0 0 0 0 0 0 0 0 0 0 0 0 0 0 0 0 0 0 0 0 0 0 0 0 0 0 0 0 0 0 0 0 0 0 0 0 0 0 0
0 0 0 0 0 0 0 0 0 0 0 0 0 0 0 0 0 0 0 0 0 0 0 0 0 0 0 0 0 0 0 0 0 0 0 0 0 0 0 0 0 0 0
0 0 0 0 0 0 0 0 0 0 0 0 0 0 0 0 0 0 0 0 0 0 0 0 0 0 0 0 0 0 0 0 0 0 0 0 0 0 0 0 0 0 0
0 0 0 0 0 0 0 0 0 0 0 0 0 0 0 0 0 0 0 0 0 0 0 0 0 0 0 0 0 0 0 0 0 0 0 0 0 0 0 0 0 0 0
0 0 0 0 0 0 0 0 0 0 0 0 0 0 0 0 0 0 0 0 0 0 0 0 0 0 0 0 0 0 0 0 0 0 0 0 0 0 0 0 0 0 0
0 0 0 0 0 0 0 0 0 0 0 0 0 0 0 0 0 0 0 0 0 0 0 0 0 0 0 0 0 0 0 0 0 0 0 0 0 0 0 0 0 0 0
0 0 0 0 0 0 0 0 0 0 0 0 0 0 0 0 0 0 0 0 0 0 0 0 0 0 0 0 0 0 0 0 0 0 0 0 0 0 0 0 0 0 0
0 0 0 0 0 0 0 0 0 0 0 0 0 0 0 0 0 0 0 0 0 0 0 0 0 0 0 0 0 0 0 0 0 0 0 0 0 0 0 0 0 0 0
0 0 0 0 0 0 0 0 0 0 0 0 0 0 0 0 0 0 -0 0 0 0 0 0 0 0 0 0 0 0 0 0 0 0 0 0 0 0 0 0 0 0 0
0 0 0 0 0 0 0 0 0 0 0 0 0 0 0 0 0 0 -0 0 -0 -0 -0 -0 -0 -0 -0 0 0 0 0 0 0 0 0 0 0 0 0 0 0 0 0
0 0 0 0 0 0 0 0 0 0 0 0 0 0 -0 -0 -0 0 -0 -0 -0 0 -0 -0 -0 -0 -0 -0 0 0 0 0 0 0 0 0 0 0 0 0 0 0 0
0 0 0 0 0 0 0 0 0 -0 0 -0 -0 -0 -0 -0 0 0 0 0 0 0 0 0 0 0 0 0 0 0 0 0 0 0 0 0 0 0 0 0 0 0 0
0 0 0 0 0 0 0 0 0 0 0 0 0 0 0 0 0 0 0 0 0 0 0 0 0 0 0 0 0 0 0 0 0 0 0 0 0 0 0 0 0 0 0
0 0 0 0 0 0 0 0 0 0 0 0 0 0 0 0 0 0 0 0 0 0 -0 0 0 0 0 0 0 0 0 0 0 0 0 0 0 0 0 0 0 0 0
0 0 0 0 0 0 0 0 0 0 0 0 0 0 0 0 0 0 0 0 0 0 0 0 0 0 0 0 0 0 0 0 0 0 0 0 0 0 0 0 0 0 0
0 0 0 0 0 0 0 0 0 0 0 0 0 0 0 0 0 0 0 0 0 0 0 0 -0 0 0 0 -0 0 0 0 0 0 0 0 0 0 0 0 0 0 0
Wind_Speed_500mb
37 34 34 33 31 29 29 32 34 36 36 38 36 40 39 41 42 42 43 45 42 42 42 39 37 37 35 45 46 40 39 39 40 40 39 38 35 31 31 26 22 19 16
41 39 38 38 37 35 33 33 35 37 39 40 40 42 43 43 45 48 49 49 52 46 48 46 46 44 42 41 48 52 45 43 40 45 44 42 37 33 31 30 30 29 26
43 43 41 41 40 38 38 39 40 41 43 43 46 44 47 47 49 50 52 55 58 60 52 52 52 52 50 49 47 51 59 53 47 42 46 43 38 34 32 34 39 40 37
45 44 46 44 41 40 40 40 39 41 43 40 42 44 47 49 51 52 53 56 58 61 63 57 56 57 58 58 55 53 53 63 59 54 45 44 44 46 44 45 44 46 41
50 47 46 47 43 44 43 45 47 48 49 47 45 50 50 51 53 54 58 59 60 64 69 68 63 62 63 65 65 62 60 62 65 69 64 60 56 56 57 56 53 52 50
50 48 49 49 48 50 50 51 52 52 54 56 57 60 64 66 65 68 66 66 66 67 70 73 71 70 66 69 71 72 71 68 67 71 73 75 73 71 68 67 64 64 62
49 50 50 50 51 55 54 52 51 55 63 63 65 68 70 70 71 75 71 68 71 62 66 69 70 70 71 72 74 76 78 79 75 74 78 78 80 80 79 77 75 73 72
47 50 50 49 49 49 52 53 56 61 65 64 63 66 57 59 68 68 62 56 63 60 60 57 62 62 63 59 64 68 79 84 85 83 82 81 84 86 86 84 82 80 79
34 38 40 44 44 45 50 50 49 50 57 57 57 55 29 31 40 51 58 59 63 66 61 64 66 70 67 66 65 68 66 69 84 89 89 87 88 88 89 89 88 86 86
25 24 30 33 39 43 46 47 46 48 49 54 55 59 62 67 51 41 34 46 51 69 77 77 78 76 73 77 78 77 74 68 64 73 85 90 94 94 94 93 91 89 88
24 24 27 28 32 34 37 39 41 42 44 48 52 57 65 67 72 74 62 62 58 68 75 75 77 81 80 74 73 78 80 79 80 80 79 82 87 94 97 96 95 93 91
30 34 30 30 27 27 31 36 38 40 40 43 48 52 53 63 64 66 64 71 67 69 69 75 79 80 82 79 76 75 74 77 80 84 88 89 89 88 90 98 101 98 96
24 29 29 34 32 33 34 31 27 34 40 46 50 49 51 57 59 68 72 78 74 83 83 78 80 76 79 81 82 79 79 75 74 73 80 85 92 93 94 96 99 98 100
3 2 5 8 11 15 18 23 30 30 30 32 34 40 49 52 52 54 58 64 73 73 78 74 84 87 83 77 84 81 77 77 79 75 64 74 86 92 99 103 101 101 101
6 5 7 10 12 16 19 20 24 29 32 37 41 41 47 45 47 52 61 68 69 66 78 71 75 77 75 76 90 82 88 85 83 80 84 77 79 88 91 100 101 107 106
3 6 9 14 18 20 24 27 28 30 33 36 37 40 42 47 51 56 60 60 63 70 88 82 83 74 82 89 82 82 93 95 88 85 89 89 90 85 91 98 104 108 113
8 11 12 14 17 21 23 28 32 36 40 43 44 47 49 52 56 57 58 58 58 56 77 82 78 83 78 84 72 91 77 106 95 98 83 85 88 93 98 103 114 111 102
12 14 16 18 22 26 29 34 37 41 45 50 53 56 58 59 60 60 63 68 71 72 75 95 99 93 73 74 77 86 86 91 87 105 84 89 87 92 87 94 96 96 99
13 15 16 17 20 25 29 34 40 44 47 48 51 53 55 60 64 70 74 73 74 79 84 94 110 100 87 71 77 80 84 86 85 100 110 108 101 93 90 90 87 106 99
11 12 15 19 22 28 32 37 41 45 48 50 52 53 56 58 65 68 70 74 75 79 82 89 103 103 98 104 91 78 87 83 91 85 96 103 110 89 84 93 90 95 95
8 14 18 23 27 30 39 46 50 54 58 59 61 62 66 70 68 68 67 70 73 77 82 83 88 94 85 83 76 83 90 84 90 92 105 109 97 100 101 89 85 87 88
13 16 21 25 30 35 43 50 54 55 56 59 62 63 65 68 71 72 72 67 65 72 76 79 91 89 93 78 76 73 91 93 103 73 65 94 88 100 99 99 92 88 93
16 20 23 27 31 35 42 47 50 50 51 52 55 59 61 64 68 73 75 75 76 78 71 70 83 91 101 91 88 88 89 98 112 122 110 114 90 104 105 113 108 99 89
15 19 23 26 30 34 39 43 47 49 51 53 57 60 63 66 67 74 80 83 82 82 74 74 81 91 88 92 94 98 102 101 115 114 91 115 107 110 101 104 96 98 97
15 19 23 25 28 32 38 44 50 54 55 54 54 57 61 67 71 71 80 88 91 91 88 85 84 86 87 84 81 81 88 88 101 95 76 84 96 105 112 108 106 95 99
15 18 21 26 30 34 38 44 52 58 61 64 61 59 58 62 67 70 76 82 91 95 99 99 95 88 85 84 75 73 82 82 88 100 61 61 80 84 86 77 83 95 93
Wind_Direction_500mb
251 252 252 251 250 256 252 256 247 252 258 269 265 266 267 269 271 272 275 277 283 280 275 270 262 257 252 260 262 269 284 247 241 239 235 232 230 231 232 234 235 230 230
251 254 257 257 257 256 256 256 258 260 264 264 261 265 271 273 274 274 275 276 281 277 275 273 266 258 255 251 258 260 260 274 263 242 238 231 231 234 235 234 232 231 224
255 254 257 259 261 263 263 260 262 264 262 263 268 265 270 275 279 276 278 279 278 278 274 272 270 266 259 253 248 253 256 252 268 267 246 234 233 232 228 232 234 237 236
259 256 257 258 260 263 264 268 268 269 270 266 269 266 269 278 279 279 280 281 279 280 282 276 272 268 266 261 254 249 249 250 255 261 255 245 238 235 235 235 239 240 243
260 260 259 260 255 259 260 265 269 270 272 271 269 274 276 275 278 283 286 285 284 283 282 282 279 272 268 265 261 255 249 246 250 255 257 253 245 240 243 249 249 248 246
257 258 258 257 255 262 264 266 270 270 272 277 276 274 275 283 285 285 285 287 287 288 284 283 280 277 272 266 264 262 256 250 247 248 252 255 258 256 251 252 253 253 253
253 255 257 257 259 261 266 267 265 267 270 273 275 278 281 283 283 285 286 285 286 288 286 283 279 279 278 272 263 262 261 258 252 250 247 250 254 256 257 256 257 255 256
252 249 257 258 256 257 265 268 264 266 271 272 267 277 280 285 288 291 292 287 284 283 280 278 281 282 282 282 278 269 263 259 258 256 253 249 249 253 255 256 256 256 258
260 252 254 255 256 254 259 268 267 271 271 276 276 272 273 279 283 284 283 282 283 286 280 276 276 277 280 278 278 280 274 266 259 257 257 255 252 252 253 254 256 256 258
270 271 265 261 258 261 263 270 270 270 276 279 285 282 285 285 283 290 290 282 276 283 289 289 287 285 285 281 278 279 277 273 268 261 258 258 257 255 254 254 255 256 256
250 253 253 266 273 276 279 278 281 284 284 289 290 294 291 293 286 275 278 284 286 287 289 287 288 286 288 284 284 277 275 277 274 266 263 260 260 260 257 255 255 255 256
250 253 253 252 259 269 277 278 281 279 284 290 291 291 297 287 285 282 281 285 288 289 287 292 295 295 292 279 286 284 283 279 273 273 272 260 257 257 258 256 253 253 255
252 259 265 268 264 271 270 270 275 288 290 285 285 291 291 293 297 296 288 291 289 296 295 294 293 298 293 294 289 292 288 280 279 272 268 269 267 258 254 253 254 252 253
185 268 296 298 295 290 288 287 283 273 276 286 293 304 304 304 300 298 299 299 296 293 289 289 296 293 295 294 300 301 297 290 280 271 272 273 267 266 263 255 252 251 252
56 21 347 326 317 311 308 307 302 299 294 286 283 284 283 285 297 306 310 296 285 285 293 291 294 290 298 292 291 296 299 296 291 286 278 270 270 269 263 263 254 251 250
342 318 309 309 306 305 302 295 293 294 297 300 299 298 299 298 296 291 287 292 299 297 291 295 297 289 300 297 292 289 292 295 294 291 290 284 277 267 261 264 265 255 250
313 306 305 303 300 301 307 308 309 309 312 311 311 309 308 306 304 302 301 298 295 295 301 301 298 300 292 299 284 298 289 296 294 293 287 291 284 287 270 257 259 256 253
323 324 320 320 320 322 318 318 319 320 320 319 319 318 319 317 317 316 310 309 306 300 297 299 294 287 293 298 295 293 294 298 287 293 284 298 285 292 282 277 268 263 254
324 324 329 329 335 330 330 330 335 335 334 333 333 332 332 331 327 325 322 319 312 308 306 302 299 295 294 301 296 297 294 295 287 296 288 287 294 286 288 281 283 266 260
336 348 349 354 350 343 343 339 344 347 349 348 347 346 344 341 337 335 332 326 325 320 316 312 307 308 307 305 298 300 296 291 295 289 292 287 292 283 285 286 283 279 259
1 11 6 360 356 352 351 352 355 354 352 351 351 348 347 346 346 339 337 330 327 323 320 316 311 311 313 315 312 305 290 298 291 292 287 286 285 284 288 289 284 281 272
18 19 12 6 3 359 357 358 357 355 350 347 346 344 342 340 336 333 331 328 325 322 315 311 305 303 304 306 308 304 300 298 298 290 296 289 286 285 285 286 282 282 270
21 19 14 9 2 358 355 353 349 346 343 342 340 339 336 334 331 327 323 322 323 325 321 314 304 302 301 302 304 302 299 298 292 285 283 282 285 285 284 281 284 280 279
13 13 9 5 360 354 349 344 338 338 338 342 343 342 337 335 335 334 332 330 332 333 329 321 315 311 304 297 293 297 298 294 293 293 291 280 278 278 279 283 282 280 281
2 360 356 354 350 346 343 339 336 336 335 337 340 341 342 341 340 341 337 334 333 332 328 325 317 310 313 310 305 302 295 297 292 291 291 280 280 277 280 281 279 278 276
347 348 346 344 342 341 339 338 337 339 339 340 343 343 343 339 339 342 338 336 333 334 333 329 327 321 312 313 313 296 292 294 299 297 298 291 285 278 273 272 273 277 272
Wind_Speed_850mb
37 34 34 33 31 29 29 32 34 36 36 38 36 40 39 41 42 42 43 45 42 42 42 39 37 37 35 45 46 40 39 39 40 40 39 38 35 31 31 26 22 19 16
41 39 38 38 37 35 33 33 35 37 39 40 40 42 43 43 45 48 49 49 52 46 48 46 46 44 42 41 48 52 45 43 40 45 44 42 37 33 31 30 30 29 26
43 43 41 41 40 38 38 39 40 41 43 43 46 44 47 47 49 50 52 55 58 60 52 52 52 52 50 49 47 51 59 53 47 42 46 43 38 34 32 34 39 40 37
45 44 46 44 41 40 40 40 39 41 43 40 42 44 47 49 51 52 53 56 58 61 63 57 56 57 58 58 55 53 53 63 59 54 45 44 44 46 44 45 44 46 41
50 47 46 47 43 44 43 45 47 48 49 47 45 50 50 51 53 54 58 59 60 64 69 68 63 62 63 65 65 62 60 62 65 69 64 60 56 56 57 56 53 52 50
50 48 49 49 48 50 50 51 52 52 54 56 57 60 64 66 65 68 66 66 66 67 70 73 71 70 66 69 71 72 71 68 67 71 73 75 73 71 68 67 64 64 62
49 50 50 50 51 55 54 52 51 55 63 63 65 68 70 70 71 75 71 68 71 62 66 69 70 70 71 72 74 76 78 79 75 74 78 78 80 80 79 77 75 73 72
47 50 50 49 49 49 52 53 56 61 65 64 63 66 57 59 68 68 62 56 63 60 60 57 62 62 63 59 64 68 79 84 85 83 82 81 84 86 86 84 82 80 79
34 38 40 44 44 45 50 50 49 50 57 57 57 55 29 31 40 51 58 59 63 66 61 64 66 70 67 66 65 68 66 69 84 89 89 87 88 88 89 89 88 86 86
25 24 30 33 39 43 46 47 46 48 49 54 55 59 62 67 51 41 34 46 51 69 77 77 78 76 73 77 78 77 74 68 64 73 85 90 94 94 94 93 91 89 88
24 24 27 28 32 34 37 39 41 42 44 48 52 57 65 67 72 74 62 62 58 68 75 75 77 81 80 74 73 78 80 79 80 80 79 82 87 94 97 96 95 93 91
30 34 30 30 27 27 31 36 38 40 40 43 48 52 53 63 64 66 64 71 67 69 69 75 79 80 82 79 76 75 74 77 80 84 88 89 89 88 90 98 101 98 96
24 29 29 34 32 33 34 31 27 34 40 46 50 49 51 57 59 68 72 78 74 83 83 78 80 76 79 81 82 79 79 75 74 73 80 85 92 93 94 96 99 98 100
3 2 5 8 11 15 18 23 30 30 30 32 34 40 49 52 52 54 58 64 73 73 78 74 84 87 83 77 84 81 77 77 79 75 64 74 86 92 99 103 101 101 101
6 5 7 10 12 16 19 20 24 29 32 37 41 41 47 45 47 52 61 68 69 66 78 71 75 77 75 76 90 82 88 85 83 80 84 77 79 88 91 100 101 107 106
3 6 9 14 18 20 24 27 28 30 33 36 37 40 42 47 51 56 60 60 63 70 88 82 83 74 82 89 82 82 93 95 88 85 89 89 90 85 91 98 104 108 113
8 11 12 14 17 21 23 28 32 36 40 43 44 47 49 52 56 57 58 58 58 56 77 82 78 83 78 84 72 91 77 106 95 98 83 85 88 93 98 103 114 111 102
12 14 16 18 22 26 29 34 37 41 45 50 53 56 58 59 60 60 63 68 71 72 75 95 99 93 73 74 77 86 86 91 87 105 84 89 87 92 87 94 96 96 99
13 15 16 17 20 25 29 34 40 44 47 48 51 53 55 60 64 70 74 73 74 79 84 94 110 100 87 71 77 80 84 86 85 100 110 108 101 93 90 90 87 106 99
11 12 15 19 22 28 32 37 41 45 48 50 52 53 56 58 65 68 70 74 75 79 82 89 103 103 98 104 91 78 87 83 91 85 96 103 110 89 84 93 90 95 95
8 14 18 23 27 30 39 46 50 54 58 59 61 62 66 70 68 68 67 70 73 77 82 83 88 94 85 83 76 83 90 84 90 92 105 109 97 100 101 89 85 87 88
13 16 21 25 30 35 43 50 54 55 56 59 62 63 65 68 71 72 72 67 65 72 76 79 91 89 93 78 76 73 91 93 103 73 65 94 88 100 99 99 92 88 93
16 20 23 27 31 35 42 47 50 50 51 52 55 59 61 64 68 73 75 75 76 78 71 70 83 91 101 91 88 88 89 98 112 122 110 114 90 104 105 113 108 99 89
15 19 23 26 30 34 39 43 47 49 51 53 57 60 63 66 67 74 80 83 82 82 74 74 81 91 88 92 94 98 102 101 115 114 91 115 107 110 101 104 96 98 97
15 19 23 25 28 32 38 44 50 54 55 54 54 57 61 67 71 71 80 88 91 91 88 85 84 86 87 84 81 81 88 88 101 95 76 84 96 105 112 108 106 95 99
15 18 21 26 30 34 38 44 52 58 61 64 61 59 58 62 67 70 76 82 91 95 99 99 95 88 85 84 75 73 82 82 88 100 61 61 80 84 86 77 83 95 93
Wind_Direction_850mb
251 252 252 251 250 256 252 256 247 252 258 269 265 266 267 269 271 272 275 277 283 280 275 270 262 257 252 260 262 269 284 247 241 239 235 232 230 231 232 234 235 230 230
251 254 257 257 257 256 256 256 258 260 264 264 261 265 271 273 274 274 275 276 281 277 275 273 266 258 255 251 258 260 260 274 263 242 238 231 231 234 235 234 232 231 224
255 254 257 259 261 263 263 260 262 264 262 263 268 265 270 275 279 276 278 279 278 278 274 272 270 266 259 253 248 253 256 252 268 267 246 234 233 232 228 232 234 237 236
259 256 257 258 260 263 264 268 268 269 270 266 269 266 269 278 279 279 280 281 279 280 282 276 272 268 266 261 254 249 249 250 255 261 255 245 238 235 235 235 239 240 243
260 260 259 260 255 259 260 265 269 270 272 271 269 274 276 275 278 283 286 285 284 283 282 282 279 272 268 265 261 255 249 246 250 255 257 253 245 240 243 249 249 248 246
257 258 258 257 255 262 264 266 270 270 272 277 276 274 275 283 285 285 285 287 287 288 284 283 280 277 272 266 264 262 256 250 247 248 252 255 258 256 251 252 253 253 253
253 255 257 257 259 261 266 267 265 267 270 273 275 278 281 283 283 285 286 285 286 288 286 283 279 279 278 272 263 262 261 258 252 250 247 250 254 256 257 256 257 255 256
252 249 257 258 256 257 265 268 264 266 271 272 267 277 280 285 288 291 292 287 284 283 280 278 281 282 282 282 278 269 263 259 258 256 253 249 249 253 255 256 256 256 258
260 252 254 255 256 254 259 268 267 271 271 276 276 272 273 279 283 284 283 282 283 286 280 276 276 277 280 278 278 280 274 266 259 257 257 255 252 252 253 254 256 256 258
270 271 265 261 258 261 263 270 270 270 276 279 285 282 285 285 283 290 290 282 276 283 289 289 287 285 285 281 278 279 277 273 268 261 258 258 257 255 254 254 255 256 256
250 253 253 266 273 276 279 278 281 284 284 289 290 294 291 293 286 275 278 284 286 287 289 287 288 286 288 284 284 277 275 277 274 266 263 260 260 260 257 255 255 255 256
250 253 253 252 259 269 277 278 281 279 284 290 291 291 297 287 285 282 281 285 288 289 287 292 295 295 292 279 286 284 283 279 273 273 272 260 257 257 258 256 253 253 255
252 259 265 268 264 271 270 270 275 288 290 285 285 291 291 293 297 296 288 291 289 296 295 294 293 298 293 294 289 292 288 280 279 272 268 269 267 258 254 253 254 252 253
185 268 296 298 295 290 288 287 283 273 276 286 293 304 304 304 300 298 299 299 296 293 289 289 296 293 295 294 300 301 297 290 280 271 272 273 267 266 263 255 252 251 252
56 21 347 326 317 311 308 307 302 299 294 286 283 284 283 285 297 306 310 296 285 285 293 291 294 290 298 292 291 296 299 296 291 286 278 270 270 269 263 263 254 251 250
342 318 309 309 306 305 302 295 293 294 297 300 299 298 299 298 296 291 287 292 299 297 291 295 297 289 300 297 292 289 292 295 294 291 290 284 277 267 261 264 265 255 250
313 306 305 303 300 301 307 308 309 309 312 311 311 309 308 306 304 302 301 298 295 295 301 301 298 300 292 299 284 298 289 296 294 293 287 291 284 287 270 257 259 256 253
323 324 320 320 320 322 318 318 319 320 320 319 319 318 319 317 317 316 310 309 306 300 297 299 294 287 293 298 295 293 294 298 287 293 284 298 285 292 282 277 268 263 254
324 324 329 329 335 330 330 330 335 335 334 333 333 332 332 331 327 325 322 319 312 308 306 302 299 295 294 301 296 297 294 295 287 296 288 287 294 286 288 281 283 266 260
336 348 349 354 350 343 343 339 344 347 349 348 347 346 344 341 337 335 332 326 325 320 316 312 307 308 307 305 298 300 296 291 295 289 292 287 292 283 285 286 283 279 259
1 11 6 360 356 352 351 352 355 354 352 351 351 348 347 346 346 339 337 330 327 323 320 316 311 311 313 315 312 305 290 298 291 292 287 286 285 284 288 289 284 281 272
18 19 12 6 3 359 357 358 357 355 350 347 346 344 342 340 336 333 331 328 325 322 315 311 305 303 304 306 308 304 300 298 298 290 296 289 286 285 285 286 282 282 270
21 19 14 9 2 358 355 353 349 346 343 342 340 339 336 334 331 327 323 322 323 325 321 314 304 302 301 302 304 302 299 298 292 285 283 282 285 285 284 281 284 280 279
13 13 9 5 360 354 349 344 338 338 338 342 343 342 337 335 335 334 332 330 332 333 329 321 315 311 304 297 293 297 298 294 293 293 291 280 278 278 279 283 282 280 281
2 360 356 354 350 346 343 339 336 336 335 337 340 341 342 341 340 341 337 334 333 332 328 325 317 310 313 310 305 302 295 297 292 291 291 280 280 277 280 281 279 278 276
347 348 346 344 342 341 339 338 337 339 339 340 343 343 343 339 339 342 338 336 333 334 333 329 327 321 312 313 313 296 292 294 299 297 298 291 285 278 273 272 273 277 272